Location: La Ronge
(55.1000°N, 105.3000°W)
Time: 22:06:04
(UTC-06:00)

Daily predictions for brighter satellites

Satellite Brightness Start Highest point End
(mag) Time Altitude Azimuth Time Altitude Azimuth Time Altitude Azimuth
DMSP B5D2-2 4.1 22:32:18 10° NNE 22:37:35 78° ESE 22:42:49 10° SSW
Cosmos 1553 Rocket 4.1 22:31:45 10° S 22:37:44 65° E 22:43:46 10° NNE
Meteor 2-10 4.2 22:35:20 10° NNW 22:40:40 84° WSW 22:46:09 10° S
KORONAS-FOTON 4.0 22:37:53 10° S 22:41:43 60° E 22:45:37 10° NNE
APEX 2.6 22:39:27 10° NW 22:42:18 78° WSW 22:45:33 10° SSE
SL-27 R/B 4.3 22:42:13 10° N 22:45:19 25° NE 22:48:23 10° ESE
Cosmos 1844 4.1 22:40:18 10° S 22:45:41 45° ESE 22:51:10 10° NE
Meteor 1-24 Rocket 4.1 22:40:21 10° SSW 22:46:24 79° WNW 22:52:27 10° NNE
IGS 5A 3.6 22:42:21 10° S 22:46:30 76° WSW 22:50:41 10° NNW
Cosmos 1269 Rocket 4.0 22:42:42 10° SSW 22:48:00 78° ESE 22:53:21 10° NNE
Cosmos 1844 Rocket 2.8 22:46:30 10° SSW 22:52:04 60° ESE 22:57:39 10° NE
Landsat 7 4.4 22:47:26 10° S 22:52:06 57° WSW 22:56:50 10° NNW
H-2A R/B 4.2 22:56:13 10° E 22:58:47 16° NE 23:01:23 10° NNE
NOSS 5 (C) 4.2 23:00:31 10° SW 23:03:49 82° NW 23:06:50 10° NE
USA 238 DEB 4.5 22:57:10 10° NW 23:03:49 44° WSW 23:10:34 10° SSE
USA 238 4.5 22:57:16 10° NW 23:03:56 45° WSW 23:10:41 10° SSE
Mayak 1.0 23:02:54 10° ENE 23:04:38 12° E 23:06:21 10° ESE
Cosmos 2082 Rocket 2.6 23:00:08 10° NNW 23:05:51 62° NE 23:11:31 10° SE
CZ-2C R/B 3.5 23:00:35 10° S 23:06:26 76° WSW 23:12:13 10° NNW
Cosmos 494 Rocket 4.0 23:01:54 10° SSW 23:07:08 69° ESE 23:12:24 10° NNE
SAR-Lupe-4 4.1 23:04:21 10° SE 23:07:48 48° ENE 23:11:17 10° N
NOSS 2-3 (D) 4.5 23:02:56 10° WSW 23:07:52 72° NW 23:14:02 10° NE
ATLAS 3B R/B 3.1 23:03:26 10° NW 23:09:49 49° SW 23:16:05 10° SSE
Terra 2.3 23:06:47 10° S 23:11:28 56° W 23:16:10 10° NNW
Cosmos 1302 Rocket 4.5 23:09:55 10° NNW 23:15:07 56° WSW 23:20:16 10° S
Cosmos 1833 Rocket 2.8 23:09:35 10° NNW 23:15:15 76° NE 23:20:52 10° SE
ATLAS 5 CENTAUR R/B 3.6 23:14:10 10° SE 23:16:24 13° ESE 23:18:43 10° E
GENESIS II 4.1 23:13:59 10° SW 23:17:53 77° SE 23:21:52 10° NE
NOSS 3-2 (A) 4.4 23:11:01 10° NW 23:18:07 55° SW 23:25:51 10° SSE
Helios 1B rocket 2.6 23:15:43 10° NNE 23:19:50 75° WNW 23:23:56 10° SSW
Cosmos 2251 Rocket 3.8 23:15:05 10° S 23:20:14 51° ESE 23:25:23 10° NE
Cosmos 2263 Rocket 4.0 23:17:43 10° WSW 23:22:56 36° NW 23:28:09 10° NNE
Cosmos 1340 4.2 23:20:51 10° NNW 23:24:13 30° W 23:27:34 10° SSW
SAR-Lupe-1 4.3 23:22:24 12° SSE 23:25:41 62° ENE 23:29:16 10° N
Cosmos 2221 2.8 23:21:25 10° NNW 23:25:45 67° W 23:30:02 10° S
Iridium 67 2.6 23:25:06 10° N 23:26:53 77° W 23:27:56 18° S
Cosmos 1328 4.4 23:23:34 11° SSE 23:27:03 42° E 23:30:50 10° NNE
Spot 4 3.9 23:22:51 11° SSE 23:27:36 89° W 23:32:31 10° NNW
Meteor 1-29 3.2 23:24:22 10° N 23:27:48 71° WNW 23:31:12 10° SSW
CZ-2C R/B 2.8 23:24:58 10° NNE 23:30:29 66° ESE 23:35:49 10° S
Cosmos 1300 3.6 23:29:39 10° NNW 23:33:18 43° W 23:36:57 10° SSW
Cosmos 1455 2.7 23:29:48 10° N 23:33:29 49° ENE 23:36:45 13° SSE
Cosmos 1626 2.4 23:31:05 12° S 23:34:26 54° E 23:38:06 10° NNE
Meteor 2-2 Rocket 4.3 23:30:15 10° NNW 23:35:56 79° ENE 23:41:10 12° SSE
Cosmos 1992 Rocket 4.0 23:30:55 10° NNW 23:36:10 89° WSW 23:40:59 12° SSE
ATLAS 2AS CENTAUR R/B 3.1 23:29:55 10° SW 23:37:54 79° SE 23:46:03 10° NE
NOSS 3-2 (C) 4.4 23:34:13 10° NW 23:41:19 53° SW 23:48:40 12° SSE
Timation 1 Rocket 4.5 23:37:07 10° SW 23:43:06 84° NW 23:49:08 10° NE
Cosmos 2058 4.3 23:42:06 12° SE 23:45:13 25° E 23:48:38 10° NNE
Lacrosse 5 1.8 23:41:49 10° SW 23:46:50 67° SSE 23:51:53 10° ENE
CZ-4 R/B 4.4 23:45:29 10° NNE 23:50:08 44° E 23:54:03 13° SSE
